Skip Page Navigation
NASA JPL Caltech
NASA Logo - Jet Propulsion Laboratory + View the NASA Portal
+ Center for Near-Earth Object Studies
JPL Home Earth Solar System Stars & Galaxies Technology
JPL Solar System Dynamics
BODIES ORBITS EPHEMERIDES TOOLS PHYSICAL DATA DISCOVERY FAQ SITE MAP
IMPORTANT: The SSD Announcement email list is now available. Major changes are coming in the near future, including possible hostname and/or URL changes. To be notified of such changes, subscribe to this email list.

Please visit this page for more details.


JPL Small-Body Database Browser
Search: [ help ]  
413054 (2001 RB35)
Classification: Main-belt Asteroid          SPK-ID: 2413054
Ephemeris | Orbit Diagram | Orbital Elements | Mission Design | Physical Parameters | Discovery Circumstances ]

[ show orbit diagram ]
Orbital Elements at Epoch 2458600.5 (2019-Apr-27.0) TDB
Reference: JPL 16 (heliocentric ecliptic J2000)
 Element Value Uncertainty (1-sigma)   Units 
e .2443705246686387 6.8452e-08  
a 2.617051496988814 1.9553e-08 au
q 1.977521249584811 1.8635e-07 au
i 3.751811847396947 7.5476e-06 deg
node 204.3169834481174 7.1779e-05 deg
peri 173.0860275511185 7.3148e-05 deg
M 35.19392596186279 1.0796e-05 deg
tp 2458449.324280241696
(2018-Nov-26.82428024)
4.5988e-05 TDB
period 1546.38215616991
4.23
1.7331e-05
4.745e-08
d
yr
n .2328014446905224 2.609e-09 deg/d
Q 3.256581744392816 2.4331e-08 au
  Orbit Determination Parameters
   # obs. used (total)      229  
   data-arc span      7716 days (21.13 yr)  
   first obs. used      1997-09-28  
   last obs. used      2018-11-13  
   planetary ephem.      DE431  
   SB-pert. ephem.      SB431-N16  
   condition code      0  
   norm. resid. RMS      .56313  
   source      ORB  
   producer      Otto Matic  
   solution date      2019-Jul-13 15:05:46  

Additional Information
 Earth MOID = .978649 au 
 Jupiter MOID = 2.20518 au 
 T_jup = 3.361 
[ show covariance matrix ]

Ephemeris | Orbit Diagram | Orbital Elements | Mission Design | Physical Parameters | Discovery Circumstances ]

Physical Parameter Table
Parameter Symbol Value Units Sigma Reference Notes
absolute magnitude H 17.0   n/a MPO455940  

413054 (2001 RB35)          Discovered 2001-Sep-08 by LINEAR at Socorro
Reference: Last Updated: 2014-11-10
Ephemeris | Orbit Diagram | Orbital Elements | Mission Design | Physical Parameters | Discovery Circumstances ]
ABOUT SSD CREDITS/AWARDS PRIVACY/COPYRIGHT GLOSSARY LINKS
FirstGov
(server date/time)  
NASA Home Page
Site Manager:   Ryan S. Park
Webmaster  Alan B. Chamberlin